Location: *
(43.9905°S, 176.4941°W)
Time: 03:00:19
(UTC+00:00)

Meteor 2-5 Rocket - Pass Details

Date: 08 December 2019
Orbit: 832 x 912 km, 81.2° (Epoch: 17 January)

Event Time Altitude Azimuth Distance (km) Brightness Sun altitude
Rises 09:49:28 0° 194° (SSW) 3,569 8.5 -18.8°
Reaches altitude 10° 09:51:57 10° 196° (SSW) 2,627 7.5 -19.0°
Maximum altitude 09:57:54 64° 276° (W) 1,017 4.1 -19.5°
Enters shadow 10:01:05 28° 348° (NNW) 1,650 4.8 -19.7°
